Location: Herm
(49.4830°N, 2.4500°W)
Time: 20:39:26
(UTC+00:00)

NOAA 15 - Pass Details

Date: 30 October 2021
Orbit: 797 x 812 km, 98.7° (Epoch: 27 November)

Event Time Altitude Azimuth Distance (km) Brightness Sun altitude
Rises 18:14:09 0° 115° (ESE) 3,329 7.3 -4.4°
Reaches altitude 10° 18:17:08 10° 98° (E) 2,403 6.5 -4.9°
Maximum altitude 18:20:42 19° 55° (NE) 1,869 6.0 -5.4°
Drops below altitude 10° 18:24:18 10° 13° (NNE) 2,413 6.8 -6.0°
Sets 18:27:17 0° 356° (N) 3,349 7.7 -6.5°
